EZY84DE EGMC-EGJJ

Flight info

Callsign EZY84DE
Flight time 0h 55m
Altitude 24000
Route DET M604 LYD M189 WAFFU/N0355F220 Y8 GWC/N0388F280 Y8 SAM N63 LELNA
Aircraft A320/M-SDE2E3FGHIJ1RWXYZ/LB1

Departure

Time 2026-05-04 06:05
Airport London Southend Airport (EGMC)

Arrival

Time 2026-05-04 07:01
Airport Jersey Airport (EGJJ)
Time Latitude Longitude Altitude Speed Heading
2026-05-04 05:28 51.56827 0.69984 52 ft 0 kts 188°
2026-05-04 05:55 51.56836 0.69986 52 ft 2 kts 188°
2026-05-04 05:55 51.56853 0.69991 49 ft 3 kts 206°
2026-05-04 05:56 51.56867 0.70008 45 ft 3 kts 244°
2026-05-04 05:56 51.56872 0.70033 51 ft 0 kts 279°
2026-05-04 05:59 51.56874 0.70008 49 ft 7 kts 279°
2026-05-04 05:59 51.56885 0.69918 50 ft 10 kts 280°
2026-05-04 05:59 51.56899 0.69791 53 ft 13 kts 279°
2026-05-04 05:59 51.56915 0.69634 53 ft 12 kts 279°
2026-05-04 06:00 51.56914 0.69488 54 ft 14 kts 259°
2026-05-04 06:00 51.56897 0.69341 55 ft 1 kts 259°
2026-05-04 06:00 51.56892 0.69300 52 ft 6 kts 258°
2026-05-04 06:00 51.56866 0.69222 52 ft 9 kts 233°
2026-05-04 06:01 51.56838 0.69144 52 ft 7 kts 261°
2026-05-04 06:01 51.56853 0.69093 53 ft 4 kts 324°
2026-05-04 06:03 51.57192 0.69683 52 ft 22 kts 54°
2026-05-04 06:03 51.57285 0.69886 51 ft 24 kts 52°
2026-05-04 06:05 51.57325 0.69959 52 ft 88 kts 228°
2026-05-04 06:05 51.56215 0.67419 526 ft 164 kts 237°
2026-05-04 06:05 51.55537 0.65873 1178 ft 173 kts 236°
2026-05-04 06:06 51.54821 0.64303 1834 ft 175 kts 231°
2026-05-04 06:06 51.53832 0.63312 2624 ft 168 kts 187°
2026-05-04 06:06 51.52694 0.63381 3379 ft 161 kts 177°
2026-05-04 06:06 51.51590 0.63482 4043 ft 158 kts 182°
2026-05-04 06:07 51.50448 0.63430 4445 ft 173 kts 186°
2026-05-04 06:07 51.49197 0.63262 4861 ft 187 kts 186°
2026-05-04 06:07 51.47860 0.63106 5284 ft 199 kts 186°
2026-05-04 06:07 51.46443 0.62957 5743 ft 209 kts 186°
2026-05-04 06:08 51.44984 0.62675 6296 ft 216 kts 191°
2026-05-04 06:08 51.43450 0.62256 6791 ft 232 kts 191°
2026-05-04 06:08 51.41803 0.61860 7330 ft 247 kts 188°
2026-05-04 06:08 51.40044 0.61529 7899 ft 263 kts 187°
2026-05-04 06:09 51.38156 0.61161 8410 ft 281 kts 188°
2026-05-04 06:09 51.36185 0.60749 9140 ft 289 kts 188°
2026-05-04 06:11 51.22506 0.67142 14028 ft 340 kts 152°
2026-05-04 06:11 51.20446 0.69041 14701 ft 343 kts 152°
2026-05-04 06:13 51.05529 0.82744 19145 ft 365 kts 155°
2026-05-04 06:14 50.91933 0.77571 22455 ft 364 kts 220°
2026-05-04 06:14 50.89959 0.75037 23012 ft 366 kts 220°
2026-05-04 06:15 50.87975 0.72506 23556 ft 368 kts 220°
2026-05-04 06:15 50.85976 0.69969 23885 ft 368 kts 220°
2026-05-04 06:15 50.84015 0.67486 23961 ft 360 kts 220°
2026-05-04 06:15 50.82108 0.65077 23982 ft 342 kts 220°
2026-05-04 06:16 50.80251 0.62729 23980 ft 342 kts 220°
2026-05-04 06:16 50.78394 0.60373 23983 ft 343 kts 220°
2026-05-04 06:16 50.76536 0.58013 23980 ft 343 kts 220°
2026-05-04 06:16 50.74672 0.55648 23983 ft 343 kts 220°
2026-05-04 06:17 50.72811 0.53290 23986 ft 343 kts 219°
2026-05-04 06:17 50.70948 0.50937 23987 ft 343 kts 219°
2026-05-04 06:17 50.69084 0.48590 23988 ft 344 kts 219°
2026-05-04 06:17 50.67214 0.46242 23984 ft 344 kts 219°
2026-05-04 06:18 50.65341 0.43888 23992 ft 344 kts 219°
2026-05-04 06:18 50.63470 0.41536 23983 ft 344 kts 219°
2026-05-04 06:18 50.61720 0.38986 23992 ft 344 kts 231°
2026-05-04 06:20 50.63617 0.13656 23987 ft 359 kts 287°
2026-05-04 06:20 50.64529 0.09997 23987 ft 359 kts 287°
2026-05-04 06:21 50.68171 -0.04622 23987 ft 358 kts 287°
2026-05-04 06:21 50.69078 -0.08275 23985 ft 358 kts 287°
2026-05-04 06:22 50.69984 -0.11939 23986 ft 358 kts 287°
2026-05-04 06:22 50.70886 -0.15598 23984 ft 358 kts 287°
2026-05-04 06:25 50.82305 -0.62270 23984 ft 358 kts 287°
2026-05-04 06:25 50.83190 -0.65935 23983 ft 358 kts 286°
2026-05-04 06:26 50.84074 -0.69619 23982 ft 358 kts 286°
2026-05-04 06:26 50.84958 -0.73311 23983 ft 358 kts 286°
2026-05-04 06:26 50.85762 -0.77031 23984 ft 356 kts 281°
2026-05-04 06:26 50.86407 -0.80802 23986 ft 356 kts 281°
2026-05-04 06:27 50.89008 -0.95935 23989 ft 357 kts 281°
2026-05-04 06:28 50.89657 -0.99735 23992 ft 357 kts 281°
2026-05-04 06:28 50.90301 -1.03518 23993 ft 357 kts 281°
2026-05-04 06:28 50.90949 -1.07327 23998 ft 357 kts 281°
2026-05-04 06:28 50.91592 -1.11127 24001 ft 357 kts 281°
2026-05-04 06:29 50.92234 -1.14929 23999 ft 358 kts 281°
2026-05-04 06:29 50.92874 -1.18737 24004 ft 357 kts 281°
2026-05-04 06:29 50.93503 -1.22493 24004 ft 358 kts 281°
2026-05-04 06:29 50.94036 -1.26334 24003 ft 354 kts 271°
2026-05-04 06:30 50.93921 -1.30188 24004 ft 348 kts 255°
2026-05-04 06:30 50.93125 -1.33753 24005 ft 343 kts 239°
2026-05-04 06:30 50.91725 -1.36797 24001 ft 341 kts 224°
2026-05-04 06:30 50.89846 -1.39051 24000 ft 341 kts 209°
2026-05-04 06:31 50.87725 -1.40749 23999 ft 341 kts 207°
2026-05-04 06:31 50.85600 -1.42436 24003 ft 341 kts 207°
2026-05-04 06:31 50.83479 -1.44125 24003 ft 341 kts 207°
2026-05-04 06:31 50.81360 -1.45816 23998 ft 341 kts 207°
2026-05-04 06:32 50.79240 -1.47502 23995 ft 341 kts 207°
2026-05-04 06:33 50.64415 -1.59233 24001 ft 340 kts 207°
2026-05-04 06:34 50.62297 -1.60903 23995 ft 340 kts 207°
2026-05-04 06:34 50.60183 -1.62570 23996 ft 340 kts 207°
2026-05-04 06:34 50.58071 -1.64234 23997 ft 340 kts 207°
2026-05-04 06:34 50.55956 -1.65899 23998 ft 340 kts 207°
2026-05-04 06:35 50.53845 -1.67561 23993 ft 340 kts 207°
2026-05-04 06:36 50.39057 -1.79121 23988 ft 340 kts 206°
2026-05-04 06:37 50.36939 -1.80775 23990 ft 340 kts 206°
2026-05-04 06:37 50.34824 -1.82421 23991 ft 340 kts 206°
2026-05-04 06:37 50.32706 -1.84068 23995 ft 340 kts 206°
2026-05-04 06:37 50.30587 -1.85717 23992 ft 340 kts 206°
2026-05-04 06:38 50.28467 -1.87364 23989 ft 340 kts 206°
2026-05-04 06:38 50.26341 -1.89012 23989 ft 340 kts 206°
2026-05-04 06:40 50.11475 -2.00506 23990 ft 341 kts 206°
2026-05-04 06:40 50.09346 -2.02138 23994 ft 341 kts 206°
2026-05-04 06:40 50.07217 -2.03769 23994 ft 341 kts 206°
2026-05-04 06:40 50.05043 -2.05432 23995 ft 357 kts 206°
2026-05-04 06:41 50.02779 -2.07167 23995 ft 366 kts 206°
2026-05-04 06:41 50.00497 -2.08919 23905 ft 364 kts 206°
2026-05-04 06:41 49.98238 -2.10524 23438 ft 349 kts 199°
2026-05-04 06:41 49.95971 -2.11425 22941 ft 333 kts 193°
2026-05-04 06:42 49.93714 -2.12186 22467 ft 325 kts 193°
2026-05-04 06:42 49.91541 -2.12929 22006 ft 323 kts 193°
2026-05-04 06:42 49.89351 -2.13684 21552 ft 322 kts 193°
2026-05-04 06:44 49.74295 -2.18813 18609 ft 312 kts 192°
2026-05-04 06:44 49.72176 -2.19536 18210 ft 312 kts 192°
2026-05-04 06:44 49.70063 -2.20286 17751 ft 311 kts 194°
2026-05-04 06:45 49.68679 -2.20851 17459 ft 311 kts 195°
2026-05-04 06:45 49.66602 -2.21772 17021 ft 310 kts 196°
2026-05-04 06:45 49.64532 -2.22728 16588 ft 310 kts 196°
2026-05-04 06:45 49.62468 -2.23685 16162 ft 310 kts 196°
2026-05-04 06:46 49.60404 -2.24632 15742 ft 309 kts 195°
2026-05-04 06:46 49.58343 -2.25567 15330 ft 309 kts 195°
2026-05-04 06:46 49.56282 -2.26496 14928 ft 308 kts 195°
2026-05-04 06:46 49.54224 -2.27414 14523 ft 308 kts 195°
2026-05-04 06:48 49.40079 -2.33667 11890 ft 290 kts 195°
2026-05-04 06:48 49.38157 -2.34514 11632 ft 285 kts 195°
2026-05-04 06:49 49.36266 -2.35346 11382 ft 280 kts 195°
2026-05-04 06:50 49.23742 -2.40412 9596 ft 251 kts 174°
2026-05-04 06:51 49.22081 -2.39681 9250 ft 250 kts 152°
2026-05-04 06:51 49.20734 -2.38009 8900 ft 251 kts 129°
2026-05-04 06:51 49.19911 -2.35671 8546 ft 252 kts 107°
2026-05-04 06:51 49.19742 -2.33006 8198 ft 254 kts 86°
2026-05-04 06:52 49.19953 -2.30330 7851 ft 253 kts 85°
2026-05-04 06:52 49.20118 -2.27662 7518 ft 250 kts 95°
2026-05-04 06:52 49.19705 -2.25182 7244 ft 241 kts 121°
2026-05-04 06:52 49.18659 -2.23269 6997 ft 232 kts 145°
2026-05-04 06:53 49.17209 -2.22218 6703 ft 227 kts 169°
2026-05-04 06:53 49.15670 -2.22177 6410 ft 224 kts 193°
2026-05-04 06:53 49.14277 -2.23173 6097 ft 223 kts 220°
2026-05-04 06:53 49.13362 -2.25050 5798 ft 224 kts 248°
2026-05-04 06:54 49.13139 -2.27400 5492 ft 227 kts 274°
2026-05-04 06:54 49.13308 -2.29795 5179 ft 227 kts 275°
2026-05-04 06:54 49.13475 -2.32196 4858 ft 229 kts 275°
2026-05-04 06:54 49.13640 -2.34629 4497 ft 231 kts 275°
2026-05-04 06:55 49.13804 -2.37056 4191 ft 226 kts 275°
2026-05-04 06:55 49.14025 -2.39386 3891 ft 219 kts 288°
2026-05-04 06:55 49.14867 -2.41249 3602 ft 213 kts 322°
2026-05-04 06:55 49.16201 -2.42106 3231 ft 211 kts 354°
2026-05-04 06:56 49.17593 -2.41780 3019 ft 198 kts 25°
2026-05-04 06:57 49.19843 -2.30903 1692 ft 146 kts 82°
2026-05-04 06:58 49.19978 -2.29370 1506 ft 145 kts 81°
2026-05-04 06:58 49.20082 -2.27841 1327 ft 144 kts 85°
2026-05-04 06:58 49.20179 -2.26329 1130 ft 142 kts 81°
2026-05-04 06:58 49.20349 -2.24854 918 ft 140 kts 77°
2026-05-04 06:59 49.20465 -2.23384 703 ft 139 kts 83°
2026-05-04 06:59 49.20592 -2.21922 480 ft 139 kts 79°
2026-05-04 06:59 49.20716 -2.20465 311 ft 138 kts 80°
2026-05-04 06:59 49.20829 -2.19173 282 ft 90 kts 80°
2026-05-04 07:01 49.20722 -2.18652 281 ft 10 kts 263°
2026-05-04 07:01 49.20715 -2.18747 281 ft 8 kts 263°
2026-05-04 07:02 49.20705 -2.18863 281 ft 16 kts 262°
2026-05-04 07:02 49.20691 -2.19044 281 ft 17 kts 264°
2026-05-04 07:02 49.20683 -2.19190 281 ft 12 kts 277°
2026-05-04 07:02 49.20698 -2.19307 281 ft 11 kts 285°
2026-05-04 07:03 49.20712 -2.19408 281 ft 9 kts 269°
2026-05-04 07:03 49.20703 -2.19506 281 ft 12 kts 260°
2026-05-04 07:03 49.20664 -2.19650 281 ft 15 kts 217°
2026-05-04 07:03 49.20611 -2.19766 281 ft 13 kts 260°
2026-05-04 07:04 49.20605 -2.19843 284 ft 6 kts 253°
2026-05-04 07:04 49.20578 -2.19864 281 ft 4 kts 181°
2026-05-04 07:04 49.20556 -2.19861 281 ft 0 kts 175°
2026-05-04 07:04 49.20548 -2.19860 281 ft 0 kts 176°
2026-05-04 07:05 49.20547 -2.19860 281 ft 0 kts 176°